Wetterdaten: Sonntag, 30.08.2015
Datum Zeit Temp. A. Feuchte A. Luftdruck Regen Wind Richtung Richtung Sonnenschein ET UV Solar Taupunkt Windchill Windben Empfang
30.08.2015 00:03 21,9 C 69 % 1019,5 hPa 0,0 l/m 4,7 km/h (1 Bft) SO 134 0 min 0,000 mm 0,0 UV-I 0 W/m 15,9 C 21,9 C 7,9 km/h (2 Bft) 0,00 %
30.08.2015 00:08 21,9 C 69 % 1019,3 hPa 0,0 l/m 1,4 km/h (1 Bft) O-SO 121 0 min 0,000 mm 0,0 UV-I 0 W/m 15,9 C 21,9 C 4,0 km/h (1 Bft) 0,00 %
30.08.2015 00:13 21,9 C 69 % 1019,5 hPa 0,0 l/m 0,7 km/h (0 Bft) NO 55 0 min 0,000 mm 0,0 UV-I 0 W/m 15,9 C 21,9 C 4,0 km/h (1 Bft) 0,00 %
30.08.2015 00:18 21,9 C 69 % 1019,4 hPa 0,0 l/m 0,0 km/h (0 Bft) O-NO 75 0 min 0,000 mm 0,0 UV-I 0 W/m 15,9 C 21,9 C 0,0 km/h (0 Bft) 0,00 %
30.08.2015 00:23 21,8 C 70 % 1019,5 hPa 0,0 l/m 0,0 km/h (0 Bft) NO 50 0 min 0,000 mm 0,0 UV-I 0 W/m 16,1 C 21,8 C 0,0 km/h (0 Bft) 0,00 %
30.08.2015 00:28 21,6 C 70 % 1019,4 hPa 0,0 l/m 0,0 km/h (0 Bft) O 88 0 min 0,000 mm 0,0 UV-I 0 W/m 15,9 C 21,6 C 0,0 km/h (0 Bft) 0,00 %
30.08.2015 00:33 21,4 C 71 % 1019,5 hPa 0,0 l/m 0,0 km/h (0 Bft) O-NO 75 0 min 0,000 mm 0,0 UV-I 0 W/m 15,9 C 21,4 C 0,0 km/h (0 Bft) 0,00 %
30.08.2015 00:38 21,2 C 71 % 1019,5 hPa 0,0 l/m 0,0 km/h (0 Bft) O-NO 72 0 min 0,000 mm 0,0 UV-I 0 W/m 15,7 C 21,2 C 0,0 km/h (0 Bft) 0,00 %
30.08.2015 00:43 21,1 C 73 % 1019,4 hPa 0,0 l/m 0,0 km/h (0 Bft) O 85 0 min 0,000 mm 0,0 UV-I 0 W/m 16,1 C 21,1 C 0,0 km/h (0 Bft) 0,00 %
30.08.2015 00:48 21,0 C 73 % 1019,4 hPa 0,0 l/m 0,0 km/h (0 Bft) O-NO 76 0 min 0,000 mm 0,0 UV-I 0 W/m 16,0 C 21,0 C 0,0 km/h (0 Bft) 0,00 %
30.08.2015 00:53 20,9 C 74 % 1019,3 hPa 0,0 l/m 0,0 km/h (0 Bft) O-NO 76 0 min 0,000 mm 0,0 UV-I 0 W/m 16,1 C 20,9 C 0,0 km/h (0 Bft) 0,00 %
30.08.2015 00:58 20,8 C 74 % 1019,5 hPa 0,0 l/m 0,0 km/h (0 Bft) O-NO 67 0 min 0,000 mm 0,0 UV-I 0 W/m 16,0 C 20,8 C 0,0 km/h (0 Bft) 0,00 %
30.08.2015 01:03 20,7 C 74 % 1019,3 hPa 0,0 l/m 0,0 km/h (0 Bft) O-NO 70 0 min 0,000 mm 0,0 UV-I 0 W/m 15,9 C 20,7 C 0,0 km/h (0 Bft) 0,00 %
30.08.2015 01:08 20,6 C 74 % 1019,4 hPa 0,0 l/m 0,0 km/h (0 Bft) O-NO 68 0 min 0,000 mm 0,0 UV-I 0 W/m 15,8 C 20,6 C 0,0 km/h (0 Bft) 0,00 %
30.08.2015 01:13 20,5 C 75 % 1019,3 hPa 0,0 l/m 0,0 km/h (0 Bft) O-NO 68 0 min 0,000 mm 0,0 UV-I 0 W/m 15,9 C 20,5 C 0,0 km/h (0 Bft) 0,00 %
30.08.2015 01:18 20,4 C 75 % 1019,2 hPa 0,0 l/m 0,0 km/h (0 Bft) O-NO 68 0 min 0,000 mm 0,0 UV-I 0 W/m 15,8 C 20,4 C 0,0 km/h (0 Bft) 0,00 %
30.08.2015 01:23 20,3 C 77 % 1019,5 hPa 0,0 l/m 0,0 km/h (0 Bft) O-NO 68 0 min 0,000 mm 0,0 UV-I 0 W/m 16,1 C 20,3 C 0,0 km/h (0 Bft) 0,00 %
30.08.2015 01:28 20,1 C 78 % 1019,1 hPa 0,0 l/m 0,0 km/h (0 Bft) O-NO 67 0 min 0,000 mm 0,0 UV-I 0 W/m 16,1 C 20,1 C 0,0 km/h (0 Bft) 0,00 %
30.08.2015 01:33 20,0 C 77 % 1019,1 hPa 0,0 l/m 0,0 km/h (0 Bft) O-NO 67 0 min 0,000 mm 0,0 UV-I 0 W/m 15,8 C 20,0 C 0,0 km/h (0 Bft) 0,00 %
30.08.2015 01:38 19,9 C 77 % 1019,0 hPa 0,0 l/m 0,0 km/h (0 Bft) O-NO 67 0 min 0,000 mm 0,0 UV-I 0 W/m 15,7 C 19,9 C 0,0 km/h (0 Bft) 0,00 %
30.08.2015 01:43 19,8 C 78 % 1019,2 hPa 0,0 l/m 0,0 km/h (0 Bft) O-NO 67 0 min 0,000 mm 0,0 UV-I 0 W/m 15,8 C 19,8 C 0,0 km/h (0 Bft) 0,00 %
30.08.2015 01:48 19,7 C 79 % 1019,2 hPa 0,0 l/m 0,0 km/h (0 Bft) O-NO 67 0 min 0,000 mm 0,0 UV-I 0 W/m 16,0 C 19,7 C 0,0 km/h (0 Bft) 0,00 %
30.08.2015 01:53 19,5 C 80 % 1019,2 hPa 0,0 l/m 0,0 km/h (0 Bft) O-NO 67 0 min 0,000 mm 0,0 UV-I 0 W/m 16,0 C 19,5 C 0,0 km/h (0 Bft) 0,00 %
30.08.2015 01:58 19,4 C 82 % 1019,1 hPa 0,0 l/m 0,0 km/h (0 Bft) O-NO 67 0 min 0,000 mm 0,0 UV-I 0 W/m 16,2 C 19,4 C 0,0 km/h (0 Bft) 0,00 %
30.08.2015 02:03 19,2 C 82 % 1019,1 hPa 0,0 l/m 0,0 km/h (0 Bft) O-NO 67 0 min 0,000 mm 0,0 UV-I 0 W/m 16,0 C 19,2 C 0,0 km/h (0 Bft) 0,00 %
30.08.2015 02:08 19,0 C 82 % 1019,2 hPa 0,0 l/m 0,0 km/h (0 Bft) O-NO 67 0 min 0,000 mm 0,0 UV-I 0 W/m 15,9 C 19,0 C 0,0 km/h (0 Bft) 0,00 %
30.08.2015 02:13 18,8 C 83 % 1019,2 hPa 0,0 l/m 0,0 km/h (0 Bft) O-NO 67 0 min 0,000 mm 0,0 UV-I 0 W/m 15,8 C 18,8 C 0,0 km/h (0 Bft) 0,00 %
30.08.2015 02:18 18,5 C 84 % 1019,0 hPa 0,0 l/m 0,0 km/h (0 Bft) O-NO 67 0 min 0,000 mm 0,0 UV-I 0 W/m 15,7 C 18,5 C 0,0 km/h (0 Bft) 0,00 %
30.08.2015 02:23 18,3 C 84 % 1019,0 hPa 0,0 l/m 0,0 km/h (0 Bft) O-NO 67 0 min 0,000 mm 0,0 UV-I 0 W/m 15,5 C 18,3 C 0,0 km/h (0 Bft) 0,00 %
30.08.2015 02:28 18,1 C 85 % 1019,2 hPa 0,0 l/m 0,0 km/h (0 Bft) O-NO 67 0 min 0,000 mm 0,0 UV-I 0 W/m 15,5 C 18,1 C 0,0 km/h (0 Bft) 0,00 %
30.08.2015 02:33 17,9 C 86 % 1019,0 hPa 0,0 l/m 0,0 km/h (0 Bft) O-NO 62 0 min 0,000 mm 0,0 UV-I 0 W/m 15,5 C 17,9 C 0,0 km/h (0 Bft) 0,00 %
30.08.2015 02:38 17,7 C 87 % 1019,0 hPa 0,0 l/m 0,0 km/h (0 Bft) O-NO 62 0 min 0,000 mm 0,0 UV-I 0 W/m 15,5 C 17,7 C 0,0 km/h (0 Bft) 0,00 %
30.08.2015 02:43 17,6 C 88 % 1019,0 hPa 0,0 l/m 0,0 km/h (0 Bft) O-NO 62 0 min 0,000 mm 0,0 UV-I 0 W/m 15,6 C 17,6 C 0,0 km/h (0 Bft) 0,00 %
30.08.2015 02:48 17,4 C 88 % 1019,0 hPa 0,0 l/m 0,0 km/h (0 Bft) O-NO 62 0 min 0,000 mm 0,0 UV-I 0 W/m 15,4 C 17,4 C 0,0 km/h (0 Bft) 0,00 %
30.08.2015 02:53 17,3 C 88 % 1019,1 hPa 0,0 l/m 0,0 km/h (0 Bft) O-NO 62 0 min 0,000 mm 0,0 UV-I 0 W/m 15,3 C 17,3 C 0,0 km/h (0 Bft) 0,00 %
30.08.2015 02:58 17,2 C 89 % 1019,0 hPa 0,0 l/m 0,0 km/h (0 Bft) O-NO 71 0 min 0,000 mm 0,0 UV-I 0 W/m 15,4 C 17,2 C 0,0 km/h (0 Bft) 0,00 %
30.08.2015 03:03 17,1 C 90 % 1019,0 hPa 0,0 l/m 0,0 km/h (0 Bft) O-NO 67 0 min 0,000 mm 0,0 UV-I 0 W/m 15,4 C 17,1 C 0,0 km/h (0 Bft) 0,00 %
30.08.2015 03:08 17,0 C 90 % 1019,1 hPa 0,0 l/m 0,0 km/h (0 Bft) O-NO 67 0 min 0,000 mm 0,0 UV-I 0 W/m 15,3 C 17,0 C 0,0 km/h (0 Bft) 0,00 %
30.08.2015 03:13 17,0 C 91 % 1019,1 hPa 0,0 l/m 0,0 km/h (0 Bft) O-NO 67 0 min 0,000 mm 0,0 UV-I 0 W/m 15,5 C 17,0 C 0,0 km/h (0 Bft) 0,00 %
30.08.2015 03:18 17,0 C 89 % 1019,1 hPa 0,0 l/m 0,0 km/h (0 Bft) O-NO 65 0 min 0,000 mm 0,0 UV-I 0 W/m 15,2 C 17,0 C 0,0 km/h (0 Bft) 0,00 %
30.08.2015 03:23 16,9 C 89 % 1019,0 hPa 0,0 l/m 0,0 km/h (0 Bft) O-NO 65 0 min 0,000 mm 0,0 UV-I 0 W/m 15,1 C 16,9 C 0,0 km/h (0 Bft) 0,00 %
30.08.2015 03:28 16,8 C 89 % 1019,1 hPa 0,0 l/m 0,0 km/h (0 Bft) O-NO 65 0 min 0,000 mm 0,0 UV-I 0 W/m 15,0 C 16,8 C 0,0 km/h (0 Bft) 0,00 %
30.08.2015 03:33 16,7 C 89 % 1019,0 hPa 0,0 l/m 0,0 km/h (0 Bft) O-NO 65 0 min 0,000 mm 0,0 UV-I 0 W/m 14,9 C 16,7 C 0,0 km/h (0 Bft) 0,00 %
30.08.2015 03:38 16,6 C 90 % 1018,9 hPa 0,0 l/m 0,0 km/h (0 Bft) O-NO 65 0 min 0,000 mm 0,0 UV-I 0 W/m 15,0 C 16,6 C 0,0 km/h (0 Bft) 0,00 %
30.08.2015 03:43 16,5 C 90 % 1019,1 hPa 0,0 l/m 0,0 km/h (0 Bft) O-NO 65 0 min 0,000 mm 0,0 UV-I 0 W/m 14,9 C 16,5 C 0,0 km/h (0 Bft) 0,00 %
30.08.2015 03:48 16,4 C 90 % 1018,8 hPa 0,0 l/m 0,0 km/h (0 Bft) O-NO 65 0 min 0,000 mm 0,0 UV-I 0 W/m 14,8 C 16,4 C 0,0 km/h (0 Bft) 0,00 %
30.08.2015 03:53 16,3 C 91 % 1019,0 hPa 0,0 l/m 0,0 km/h (0 Bft) O-NO 65 0 min 0,000 mm 0,0 UV-I 0 W/m 14,8 C 16,3 C 0,0 km/h (0 Bft) 0,00 %
30.08.2015 03:58 16,2 C 91 % 1019,0 hPa 0,0 l/m 0,0 km/h (0 Bft) O-NO 65 0 min 0,000 mm 0,0 UV-I 0 W/m 14,7 C 16,2 C 0,0 km/h (0 Bft) 0,00 %
30.08.2015 04:03 16,1 C 92 % 1019,0 hPa 0,0 l/m 0,0 km/h (0 Bft) O-NO 65 0 min 0,000 mm 0,0 UV-I 0 W/m 14,8 C 16,1 C 0,0 km/h (0 Bft) 0,00 %
30.08.2015 04:08 16,0 C 93 % 1018,9 hPa 0,0 l/m 0,0 km/h (0 Bft) O-NO 65 0 min 0,000 mm 0,0 UV-I 0 W/m 14,9 C 16,0 C 0,0 km/h (0 Bft) 0,00 %
30.08.2015 04:13 15,9 C 93 % 1018,9 hPa 0,0 l/m 0,0 km/h (0 Bft) O-NO 59 0 min 0,000 mm 0,0 UV-I 0 W/m 14,8 C 15,9 C 0,0 km/h (0 Bft) 0,00 %
30.08.2015 04:19 15,9 C 93 % 1018,8 hPa 0,0 l/m 0,0 km/h (0 Bft) O-NO 59 0 min 0,000 mm 0,0 UV-I 0 W/m 14,8 C 15,9 C 0,0 km/h (0 Bft) 0,00 %
30.08.2015 04:24 15,9 C 94 % 1018,9 hPa 0,0 l/m 0,0 km/h (0 Bft) O-NO 59 0 min 0,000 mm 0,0 UV-I 0 W/m 14,9 C 15,9 C 0,0 km/h (0 Bft) 0,00 %
30.08.2015 04:29 15,8 C 94 % 1018,9 hPa 0,0 l/m 0,0 km/h (0 Bft) O-NO 59 0 min 0,000 mm 0,0 UV-I 0 W/m 14,8 C 15,8 C 0,0 km/h (0 Bft) 0,00 %
30.08.2015 04:34 15,8 C 94 % 1018,9 hPa 0,0 l/m 0,0 km/h (0 Bft) O-NO 59 0 min 0,000 mm 0,0 UV-I 0 W/m 14,8 C 15,8 C 0,0 km/h (0 Bft) 0,00 %
30.08.2015 04:39 15,8 C 95 % 1018,9 hPa 0,0 l/m 0,0 km/h (0 Bft) O-NO 59 0 min 0,000 mm 0,0 UV-I 0 W/m 15,0 C 15,8 C 0,0 km/h (0 Bft) 0,00 %
30.08.2015 04:44 15,7 C 95 % 1018,9 hPa 0,0 l/m 0,0 km/h (0 Bft) O-NO 59 0 min 0,000 mm 0,0 UV-I 0 W/m 14,9 C 15,7 C 0,0 km/h (0 Bft) 0,00 %
30.08.2015 04:49 15,7 C 95 % 1018,9 hPa 0,0 l/m 0,0 km/h (0 Bft) O-NO 59 0 min 0,000 mm 0,0 UV-I 0 W/m 14,9 C 15,7 C 0,0 km/h (0 Bft) 0,00 %
30.08.2015 04:54 15,6 C 95 % 1019,0 hPa 0,0 l/m 0,0 km/h (0 Bft) O-NO 59 0 min 0,000 mm 0,0 UV-I 0 W/m 14,8 C 15,6 C 0,0 km/h (0 Bft) 0,00 %
30.08.2015 04:59 15,6 C 95 % 1018,9 hPa 0,0 l/m 0,0 km/h (0 Bft) O-NO 59 0 min 0,000 mm 0,0 UV-I 0 W/m 14,8 C 15,6 C 0,0 km/h (0 Bft) 0,00 %
30.08.2015 05:04 15,5 C 95 % 1018,8 hPa 0,0 l/m 0,0 km/h (0 Bft) O-NO 59 0 min 0,000 mm 0,0 UV-I 0 W/m 14,7 C 15,5 C 0,0 km/h (0 Bft) 0,00 %
30.08.2015 05:09 15,5 C 95 % 1019,0 hPa 0,0 l/m 0,0 km/h (0 Bft) O-NO 59 0 min 0,000 mm 0,0 UV-I 0 W/m 14,7 C 15,5 C 0,0 km/h (0 Bft) 0,00 %
30.08.2015 05:14 15,4 C 96 % 1019,1 hPa 0,0 l/m 0,0 km/h (0 Bft) O-NO 59 0 min 0,000 mm 0,0 UV-I 0 W/m 14,8 C 15,4 C 0,0 km/h (0 Bft) 0,00 %
30.08.2015 05:19 15,4 C 96 % 1018,9 hPa 0,0 l/m 0,0 km/h (0 Bft) O-NO 59 0 min 0,000 mm 0,0 UV-I 0 W/m 14,8 C 15,4 C 0,0 km/h (0 Bft) 0,00 %
30.08.2015 05:24 15,4 C 96 % 1018,9 hPa 0,0 l/m 0,0 km/h (0 Bft) O-NO 59 0 min 0,000 mm 0,0 UV-I 0 W/m 14,8 C 15,4 C 0,0 km/h (0 Bft) 0,00 %
30.08.2015 05:29 15,4 C 96 % 1019,0 hPa 0,0 l/m 0,0 km/h (0 Bft) O-NO 59 0 min 0,000 mm 0,0 UV-I 0 W/m 14,8 C 15,4 C 0,0 km/h (0 Bft) 0,00 %
30.08.2015 05:34 15,4 C 96 % 1019,1 hPa 0,0 l/m 0,0 km/h (0 Bft) O-NO 59 0 min 0,000 mm 0,0 UV-I 0 W/m 14,8 C 15,4 C 0,0 km/h (0 Bft) 0,00 %
30.08.2015 05:39 15,4 C 97 % 1019,0 hPa 0,0 l/m 0,0 km/h (0 Bft) O-NO 59 0 min 0,000 mm 0,0 UV-I 0 W/m 14,9 C 15,4 C 0,0 km/h (0 Bft) 0,00 %
30.08.2015 05:44 15,4 C 97 % 1019,0 hPa 0,0 l/m 0,0 km/h (0 Bft) O-NO 59 0 min 0,000 mm 0,0 UV-I 0 W/m 14,9 C 15,4 C 0,0 km/h (0 Bft) 0,00 %
30.08.2015 05:49 15,3 C 97 % 1019,1 hPa 0,0 l/m 0,0 km/h (0 Bft) O-NO 59 0 min 0,000 mm 0,0 UV-I 0 W/m 14,8 C 15,3 C 0,0 km/h (0 Bft) 0,00 %
30.08.2015 05:54 15,2 C 97 % 1019,1 hPa 0,0 l/m 0,0 km/h (0 Bft) O-NO 59 0 min 0,000 mm 0,0 UV-I 0 W/m 14,7 C 15,2 C 0,0 km/h (0 Bft) 0,00 %
30.08.2015 05:59 15,2 C 98 % 1019,1 hPa 0,0 l/m 0,0 km/h (0 Bft) O-NO 59 0 min 0,000 mm 0,0 UV-I 0 W/m 14,9 C 15,2 C 0,0 km/h (0 Bft) 0,00 %
30.08.2015 06:04 15,1 C 98 % 1019,3 hPa 0,0 l/m 0,0 km/h (0 Bft) O-NO 59 0 min 0,000 mm 0,0 UV-I 0 W/m 14,8 C 15,1 C 0,0 km/h (0 Bft) 0,00 %
30.08.2015 06:09 15,0 C 98 % 1019,2 hPa 0,0 l/m 0,0 km/h (0 Bft) O-NO 59 0 min 0,000 mm 0,0 UV-I 0 W/m 14,7 C 15,0 C 0,0 km/h (0 Bft) 0,00 %
30.08.2015 06:14 14,8 C 97 % 1019,2 hPa 0,0 l/m 0,0 km/h (0 Bft) O-NO 59 0 min 0,000 mm 0,0 UV-I 0 W/m 14,3 C 14,8 C 0,0 km/h (0 Bft) 0,00 %
30.08.2015 06:19 14,7 C 97 % 1019,3 hPa 0,0 l/m 0,0 km/h (0 Bft) O-NO 59 0 min 0,000 mm 0,0 UV-I 1 W/m 14,2 C 14,7 C 0,0 km/h (0 Bft) 0,00 %
30.08.2015 06:24 14,5 C 97 % 1019,2 hPa 0,0 l/m 0,0 km/h (0 Bft) O-NO 59 0 min 0,000 mm 0,0 UV-I 5 W/m 14,0 C 14,5 C 0,0 km/h (0 Bft) 0,00 %
30.08.2015 06:29 14,4 C 98 % 1019,4 hPa 0,0 l/m 0,0 km/h (0 Bft) O-NO 59 5 min 0,000 mm 0,0 UV-I 17 W/m 14,1 C 14,4 C 0,0 km/h (0 Bft) 0,00 %
30.08.2015 06:34 14,5 C 98 % 1019,4 hPa 0,0 l/m 0,0 km/h (0 Bft) O-NO 59 5 min 0,000 mm 0,0 UV-I 28 W/m 14,2 C 14,5 C 0,0 km/h (0 Bft) 0,00 %
30.08.2015 06:39 14,8 C 97 % 1019,4 hPa 0,0 l/m 0,0 km/h (0 Bft) O-NO 59 5 min 0,000 mm 0,0 UV-I 44 W/m 14,3 C 14,8 C 0,0 km/h (0 Bft) 0,00 %
30.08.2015 06:44 15,0 C 97 % 1019,4 hPa 0,0 l/m 0,0 km/h (0 Bft) O-NO 59 5 min 0,000 mm 0,0 UV-I 51 W/m 14,5 C 15,0 C 0,0 km/h (0 Bft) 0,00 %
30.08.2015 06:49 15,3 C 97 % 1019,5 hPa 0,0 l/m 0,0 km/h (0 Bft) O-NO 59 5 min 0,000 mm 0,0 UV-I 80 W/m 14,8 C 15,3 C 0,0 km/h (0 Bft) 0,00 %
30.08.2015 06:54 15,7 C 96 % 1019,5 hPa 0,0 l/m 0,0 km/h (0 Bft) O-NO 59 5 min 0,000 mm 0,0 UV-I 96 W/m 15,1 C 15,7 C 0,0 km/h (0 Bft) 0,00 %
30.08.2015 06:59 16,1 C 97 % 1019,6 hPa 0,0 l/m 0,0 km/h (0 Bft) O-NO 59 5 min 0,000 mm 0,0 UV-I 100 W/m 15,6 C 16,1 C 0,0 km/h (0 Bft) 0,00 %
30.08.2015 07:04 16,6 C 96 % 1019,6 hPa 0,0 l/m 0,0 km/h (0 Bft) O-NO 59 5 min 0,000 mm 0,0 UV-I 109 W/m 16,0 C 16,6 C 0,0 km/h (0 Bft) 0,00 %
30.08.2015 07:09 17,1 C 95 % 1019,5 hPa 0,0 l/m 0,0 km/h (0 Bft) O-NO 58 5 min 0,000 mm 0,0 UV-I 118 W/m 16,3 C 17,1 C 0,0 km/h (0 Bft) 0,00 %
30.08.2015 07:14 17,6 C 92 % 1019,6 hPa 0,0 l/m 0,0 km/h (0 Bft) O-NO 58 5 min 0,000 mm 0,0 UV-I 122 W/m 16,3 C 17,6 C 0,0 km/h (0 Bft) 0,00 %
30.08.2015 07:19 18,2 C 87 % 1019,7 hPa 0,0 l/m 0,0 km/h (0 Bft) O-NO 58 0 min 0,000 mm 0,0 UV-I 76 W/m 16,0 C 18,2 C 0,0 km/h (0 Bft) 0,00 %
30.08.2015 07:24 18,7 C 81 % 1019,6 hPa 0,0 l/m 0,0 km/h (0 Bft) O-NO 58 5 min 0,000 mm 0,0 UV-I 98 W/m 15,4 C 18,7 C 0,0 km/h (0 Bft) 0,00 %
30.08.2015 07:29 19,0 C 80 % 1019,6 hPa 0,0 l/m 0,0 km/h (0 Bft) O-NO 59 5 min 0,000 mm 0,0 UV-I 108 W/m 15,5 C 19,0 C 0,0 km/h (0 Bft) 0,00 %
30.08.2015 07:34 19,3 C 78 % 1019,6 hPa 0,0 l/m 0,0 km/h (0 Bft) O-NO 58 5 min 0,000 mm 1,0 UV-I 115 W/m 15,4 C 19,3 C 0,0 km/h (0 Bft) 0,00 %
30.08.2015 07:39 19,6 C 75 % 1019,7 hPa 0,0 l/m 0,0 km/h (0 Bft) O-NO 58 0 min 0,000 mm 1,0 UV-I 117 W/m 15,0 C 19,6 C 0,0 km/h (0 Bft) 0,00 %
30.08.2015 07:44 20,1 C 72 % 1019,9 hPa 0,0 l/m 0,0 km/h (0 Bft) O-NO 58 0 min 0,000 mm 1,0 UV-I 103 W/m 14,9 C 20,1 C 0,0 km/h (0 Bft) 0,00 %
30.08.2015 07:49 20,6 C 68 % 1019,7 hPa 0,0 l/m 0,0 km/h (0 Bft) O-NO 58 0 min 0,000 mm 1,0 UV-I 114 W/m 14,5 C 20,6 C 0,0 km/h (0 Bft) 0,00 %
30.08.2015 07:54 21,0 C 67 % 1019,8 hPa 0,0 l/m 0,0 km/h (0 Bft) O-NO 57 0 min 0,000 mm 1,0 UV-I 118 W/m 14,6 C 21,0 C 0,0 km/h (0 Bft) 0,00 %
30.08.2015 07:59 21,3 C 66 % 1019,8 hPa 0,0 l/m 0,0 km/h (0 Bft) NO 53 0 min 0,000 mm 1,0 UV-I 122 W/m 14,7 C 21,3 C 0,0 km/h (0 Bft) 0,00 %
30.08.2015 08:04 21,7 C 65 % 1019,8 hPa 0,0 l/m 0,0 km/h (0 Bft) O-NO 57 0 min 0,000 mm 1,0 UV-I 126 W/m 14,8 C 21,7 C 0,0 km/h (0 Bft) 0,00 %
30.08.2015 08:09 22,2 C 64 % 1019,9 hPa 0,0 l/m 0,0 km/h (0 Bft) O-NO 57 0 min 0,000 mm 1,0 UV-I 131 W/m 15,1 C 22,2 C 0,0 km/h (0 Bft) 0,00 %
30.08.2015 08:14 22,5 C 64 % 1019,9 hPa 0,0 l/m 0,0 km/h (0 Bft) N-NO 20 0 min 0,000 mm 1,0 UV-I 138 W/m 15,3 C 22,5 C 0,0 km/h (0 Bft) 0,00 %
30.08.2015 08:19 22,7 C 63 % 1020,0 hPa 0,0 l/m 0,0 km/h (0 Bft) NO 54 0 min 0,000 mm 1,0 UV-I 145 W/m 15,3 C 22,7 C 0,0 km/h (0 Bft) 0,00 %
30.08.2015 08:24 22,9 C 63 % 1020,1 hPa 0,0 l/m 0,4 km/h (0 Bft) NO 46 0 min 0,000 mm 1,0 UV-I 155 W/m 15,5 C 22,9 C 4,0 km/h (1 Bft) 0,00 %
30.08.2015 08:29 23,0 C 62 % 1019,9 hPa 0,0 l/m 0,0 km/h (0 Bft) NO 50 0 min 0,000 mm 1,0 UV-I 164 W/m 15,3 C 23,0 C 0,0 km/h (0 Bft) 0,00 %
30.08.2015 08:34 23,3 C 62 % 1020,1 hPa 0,0 l/m 0,7 km/h (0 Bft) N-NW 344 0 min 0,000 mm 1,0 UV-I 173 W/m 15,6 C 23,3 C 4,0 km/h (1 Bft) 0,00 %
30.08.2015 08:39 23,5 C 62 % 1020,1 hPa 0,0 l/m 0,0 km/h (0 Bft) NO 49 0 min 0,000 mm 1,0 UV-I 180 W/m 15,8 C 23,5 C 0,0 km/h (0 Bft) 0,00 %
30.08.2015 08:44 23,8 C 61 % 1020,0 hPa 0,0 l/m 0,0 km/h (0 Bft) NO 40 0 min 0,000 mm 1,0 UV-I 182 W/m 15,8 C 23,8 C 0,0 km/h (0 Bft) 0,00 %
30.08.2015 08:49 24,1 C 60 % 1019,9 hPa 0,0 l/m 0,4 km/h (0 Bft) W-NW 301 0 min 0,000 mm 1,0 UV-I 195 W/m 15,8 C 24,1 C 4,0 km/h (1 Bft) 0,00 %
30.08.2015 08:54 24,4 C 60 % 1020,1 hPa 0,0 l/m 0,0 km/h (0 Bft) O-NO 57 0 min 0,000 mm 1,0 UV-I 204 W/m 16,1 C 24,4 C 0,0 km/h (0 Bft) 0,00 %
30.08.2015 08:59 24,5 C 59 % 1020,0 hPa 0,0 l/m 0,0 km/h (0 Bft) NO 40 0 min 0,000 mm 1,0 UV-I 216 W/m 15,9 C 24,5 C 0,0 km/h (0 Bft) 0,00 %
30.08.2015 09:04 24,6 C 58 % 1020,0 hPa 0,0 l/m 0,0 km/h (0 Bft) N-NW 343 0 min 0,000 mm 1,0 UV-I 228 W/m 15,8 C 24,6 C 0,0 km/h (0 Bft) 0,00 %
30.08.2015 09:09 24,9 C 56 % 1020,1 hPa 0,0 l/m 0,0 km/h (0 Bft) N-NW 348 0 min 0,000 mm 1,0 UV-I 248 W/m 15,5 C 24,9 C 0,0 km/h (0 Bft) 0,00 %
30.08.2015 09:14 25,2 C 57 % 1020,2 hPa 0,0 l/m 0,0 km/h (0 Bft) NO 47 0 min 0,000 mm 1,0 UV-I 246 W/m 16,1 C 25,2 C 0,0 km/h (0 Bft) 0,00 %
30.08.2015 09:19 25,3 C 57 % 1020,1 hPa 0,0 l/m 0,4 km/h (0 Bft) N-NO 19 0 min 0,000 mm 1,0 UV-I 229 W/m 16,2 C 25,3 C 4,0 km/h (1 Bft) 0,00 %
30.08.2015 09:24 25,5 C 56 % 1020,3 hPa 0,0 l/m 0,0 km/h (0 Bft) N-NO 17 5 min 0,000 mm 1,0 UV-I 277 W/m 16,1 C 25,5 C 0,0 km/h (0 Bft) 0,00 %
30.08.2015 09:29 25,6 C 55 % 1020,1 hPa 0,0 l/m 0,0 km/h (0 Bft) NO 41 5 min 0,000 mm 1,0 UV-I 289 W/m 15,9 C 25,6 C 0,0 km/h (0 Bft) 0,00 %
30.08.2015 09:34 25,8 C 55 % 1020,4 hPa 0,0 l/m 0,0 km/h (0 Bft) NO 36 5 min 0,000 mm 1,0 UV-I 302 W/m 16,1 C 25,8 C 0,0 km/h (0 Bft) 0,00 %
30.08.2015 09:39 26,1 C 53 % 1020,2 hPa 0,0 l/m 0,0 km/h (0 Bft) NO 44 5 min 0,000 mm 1,0 UV-I 300 W/m 15,8 C 26,1 C 0,0 km/h (0 Bft) 0,00 %
30.08.2015 09:44 26,5 C 52 % 1020,3 hPa 0,0 l/m 0,4 km/h (0 Bft) N-NO 33 0 min 0,000 mm 1,0 UV-I 258 W/m 15,8 C 26,5 C 4,0 km/h (1 Bft) 0,00 %
30.08.2015 09:49 26,3 C 56 % 1019,9 hPa 0,0 l/m 0,7 km/h (0 Bft) N 354 0 min 0,000 mm 1,0 UV-I 155 W/m 16,8 C 26,3 C 4,0 km/h (1 Bft) 0,00 %
30.08.2015 09:54 25,8 C 55 % 1020,1 hPa 0,0 l/m 0,0 km/h (0 Bft) NO 43 0 min 0,000 mm 1,0 UV-I 247 W/m 16,1 C 25,8 C 0,0 km/h (0 Bft) 0,00 %
30.08.2015 09:59 25,8 C 53 % 1019,9 hPa 0,0 l/m 1,4 km/h (1 Bft) W-SW 255 5 min 0,000 mm 2,0 UV-I 347 W/m 15,5 C 25,8 C 4,0 km/h (1 Bft) 0,00 %
30.08.2015 10:04 26,1 C 52 % 1020,0 hPa 0,0 l/m 1,4 km/h (1 Bft) NW 325 5 min 0,000 mm 2,0 UV-I 366 W/m 15,5 C 26,1 C 4,0 km/h (1 Bft) 0,00 %
30.08.2015 10:09 26,4 C 52 % 1020,0 hPa 0,0 l/m 0,0 km/h (0 Bft) N 352 5 min 0,000 mm 2,0 UV-I 334 W/m 15,7 C 26,4 C 0,0 km/h (0 Bft) 0,00 %
30.08.2015 10:14 26,8 C 51 % 1020,2 hPa 0,0 l/m 0,0 km/h (0 Bft) O-NO 60 5 min 0,000 mm 2,0 UV-I 396 W/m 15,8 C 26,8 C 0,0 km/h (0 Bft) 0,00 %
30.08.2015 10:19 27,2 C 47 % 1020,3 hPa 0,0 l/m 1,4 km/h (1 Bft) N-NO 27 5 min 0,000 mm 2,0 UV-I 408 W/m 14,9 C 27,2 C 4,0 km/h (1 Bft) 0,00 %
30.08.2015 10:24 27,4 C 48 % 1020,1 hPa 0,0 l/m 2,9 km/h (1 Bft) W-NW 288 5 min 0,000 mm 2,0 UV-I 439 W/m 15,4 C 27,4 C 4,0 km/h (1 Bft) 0,00 %
30.08.2015 10:29 27,4 C 48 % 1020,2 hPa 0,0 l/m 0,4 km/h (0 Bft) W-SW 256 5 min 0,000 mm 2,0 UV-I 455 W/m 15,4 C 27,4 C 4,0 km/h (1 Bft) 0,00 %
30.08.2015 10:34 27,6 C 46 % 1020,3 hPa 0,0 l/m 0,0 km/h (0 Bft) N 349 5 min 0,000 mm 2,0 UV-I 439 W/m 14,9 C 27,6 C 0,0 km/h (0 Bft) 0,00 %
30.08.2015 10:39 27,9 C 46 % 1020,1 hPa 0,0 l/m 0,7 km/h (0 Bft) O-NO 61 5 min 0,000 mm 2,0 UV-I 479 W/m 15,2 C 27,9 C 4,0 km/h (1 Bft) 0,00 %
30.08.2015 10:44 28,2 C 46 % 1020,1 hPa 0,0 l/m 0,0 km/h (0 Bft) N 353 5 min 0,000 mm 2,0 UV-I 461 W/m 15,5 C 28,2 C 0,0 km/h (0 Bft) 0,00 %
30.08.2015 10:49 28,6 C 44 % 1020,2 hPa 0,0 l/m 0,0 km/h (0 Bft) O-NO 69 5 min 0,000 mm 2,0 UV-I 371 W/m 15,1 C 28,6 C 0,0 km/h (0 Bft) 0,00 %
30.08.2015 10:54 28,9 C 43 % 1020,2 hPa 0,0 l/m 0,0 km/h (0 Bft) N-NO 29 5 min 0,000 mm 2,0 UV-I 423 W/m 15,0 C 28,9 C 0,0 km/h (0 Bft) 0,00 %
30.08.2015 10:59 29,1 C 42 % 1020,2 hPa 0,0 l/m 0,0 km/h (0 Bft) NO 36 5 min 0,000 mm 2,0 UV-I 443 W/m 14,9 C 29,1 C 0,0 km/h (0 Bft) 0,00 %
30.08.2015 11:04 29,3 C 43 % 1020,6 hPa 0,0 l/m 4,3 km/h (1 Bft) W-SW 252 5 min 0,000 mm 2,0 UV-I 548 W/m 15,4 C 29,3 C 7,9 km/h (2 Bft) 0,00 %
30.08.2015 11:09 29,3 C 42 % 1020,4 hPa 0,0 l/m 0,0 km/h (0 Bft) W-NW 299 5 min 0,000 mm 2,0 UV-I 570 W/m 15,0 C 29,3 C 0,0 km/h (0 Bft) 0,00 %
30.08.2015 11:14 29,6 C 42 % 1020,3 hPa 0,0 l/m 0,0 km/h (0 Bft) NO 55 5 min 0,000 mm 2,0 UV-I 512 W/m 15,3 C 29,6 C 0,0 km/h (0 Bft) 0,00 %
30.08.2015 11:19 29,9 C 40 % 1020,3 hPa 0,0 l/m 0,0 km/h (0 Bft) NO 36 5 min 0,000 mm 2,0 UV-I 601 W/m 14,8 C 29,9 C 0,0 km/h (0 Bft) 0,00 %
30.08.2015 11:24 30,2 C 40 % 1020,2 hPa 0,0 l/m 1,8 km/h (1 Bft) N-NO 32 5 min 0,000 mm 2,0 UV-I 582 W/m 15,1 C 30,2 C 4,0 km/h (1 Bft) 0,00 %
30.08.2015 11:29 30,4 C 40 % 1020,2 hPa 0,0 l/m 0,0 km/h (0 Bft) NO 46 5 min 0,000 mm 3,0 UV-I 630 W/m 15,3 C 30,4 C 0,0 km/h (0 Bft) 0,00 %
30.08.2015 11:34 30,7 C 38 % 1020,0 hPa 0,0 l/m 0,0 km/h (0 Bft) NO 51 5 min 0,000 mm 3,0 UV-I 641 W/m 14,7 C 30,7 C 0,0 km/h (0 Bft) 0,00 %
30.08.2015 11:39 31,1 C 39 % 1020,1 hPa 0,0 l/m 1,8 km/h (1 Bft) W-SW 256 5 min 0,000 mm 3,0 UV-I 666 W/m 15,5 C 31,1 C 4,0 km/h (1 Bft) 0,00 %
30.08.2015 11:44 31,0 C 39 % 1020,3 hPa 0,0 l/m 0,0 km/h (0 Bft) NO 35 5 min 0,000 mm 3,0 UV-I 671 W/m 15,4 C 31,0 C 0,0 km/h (0 Bft) 0,00 %
30.08.2015 11:49 30,9 C 39 % 1019,9 hPa 0,0 l/m 2,2 km/h (1 Bft) O-SO 107 5 min 0,000 mm 3,0 UV-I 698 W/m 15,3 C 30,9 C 4,0 km/h (1 Bft) 0,00 %
30.08.2015 11:54 31,0 C 38 % 1020,1 hPa 0,0 l/m 0,0 km/h (0 Bft) W-NW 292 5 min 0,000 mm 3,0 UV-I 706 W/m 15,0 C 31,0 C 0,0 km/h (0 Bft) 0,00 %
30.08.2015 11:59 31,4 C 38 % 1019,2 hPa 0,0 l/m 0,0 km/h (0 Bft) NW 324 5 min 0,000 mm 3,0 UV-I 727 W/m 15,3 C 31,4 C 0,0 km/h (0 Bft) 0,00 %
30.08.2015 12:04 31,8 C 37 % 1019,6 hPa 0,0 l/m 0,0 km/h (0 Bft) NO 44 5 min 0,000 mm 3,0 UV-I 736 W/m 15,3 C 31,8 C 0,0 km/h (0 Bft) 0,00 %
30.08.2015 12:09 31,8 C 38 % 1019,5 hPa 0,0 l/m 2,9 km/h (1 Bft) N-NW 334 5 min 0,000 mm 3,0 UV-I 744 W/m 15,7 C 31,8 C 4,0 km/h (1 Bft) 0,00 %
30.08.2015 12:14 31,7 C 38 % 1019,6 hPa 0,0 l/m 0,0 km/h (0 Bft) N-NW 348 5 min 0,000 mm 3,0 UV-I 751 W/m 15,6 C 31,7 C 0,0 km/h (0 Bft) 0,00 %
30.08.2015 12:19 31,6 C 38 % 1019,5 hPa 0,0 l/m 1,4 km/h (1 Bft) O 81 5 min 0,000 mm 3,0 UV-I 727 W/m 15,5 C 31,6 C 4,0 km/h (1 Bft) 0,00 %
30.08.2015 12:24 31,5 C 38 % 1019,3 hPa 0,0 l/m 0,0 km/h (0 Bft) NO 48 5 min 0,000 mm 3,0 UV-I 766 W/m 15,4 C 31,5 C 0,0 km/h (0 Bft) 0,00 %
30.08.2015 12:29 31,5 C 38 % 1019,4 hPa 0,0 l/m 1,4 km/h (1 Bft) N 351 5 min 0,000 mm 3,0 UV-I 777 W/m 15,4 C 31,5 C 4,0 km/h (1 Bft) 0,00 %
30.08.2015 12:34 31,7 C 38 % 1019,4 hPa 0,0 l/m 0,0 km/h (0 Bft) N 353 5 min 0,000 mm 3,0 UV-I 777 W/m 15,6 C 31,7 C 0,0 km/h (0 Bft) 0,00 %
30.08.2015 12:39 31,8 C 37 % 1019,3 hPa 0,0 l/m 4,3 km/h (1 Bft) N-NW 346 5 min 0,000 mm 3,0 UV-I 785 W/m 15,3 C 31,8 C 7,9 km/h (2 Bft) 0,00 %
30.08.2015 12:44 31,9 C 37 % 1019,1 hPa 0,0 l/m 4,0 km/h (1 Bft) N-NW 334 5 min 0,000 mm 3,0 UV-I 784 W/m 15,4 C 31,9 C 7,9 km/h (2 Bft) 0,00 %
30.08.2015 12:49 31,8 C 38 % 1019,3 hPa 0,0 l/m 0,0 km/h (0 Bft) O-NO 63 5 min 0,000 mm 3,0 UV-I 786 W/m 15,7 C 31,8 C 0,0 km/h (0 Bft) 0,00 %
30.08.2015 12:54 31,7 C 38 % 1019,0 hPa 0,0 l/m 0,0 km/h (0 Bft) NO 36 5 min 0,000 mm 3,0 UV-I 796 W/m 15,6 C 31,7 C 0,0 km/h (0 Bft) 0,00 %
30.08.2015 12:59 31,9 C 39 % 1019,0 hPa 0,0 l/m 3,2 km/h (1 Bft) N 352 5 min 0,000 mm 3,0 UV-I 807 W/m 16,2 C 31,9 C 4,0 km/h (1 Bft) 0,00 %
30.08.2015 13:04 32,1 C 37 % 1019,0 hPa 0,0 l/m 0,0 km/h (0 Bft) N-NO 25 5 min 0,000 mm 3,0 UV-I 811 W/m 15,5 C 32,1 C 0,0 km/h (0 Bft) 0,00 %
30.08.2015 13:09 32,3 C 37 % 1018,8 hPa 0,0 l/m 0,0 km/h (0 Bft) N-NO 31 5 min 0,000 mm 3,0 UV-I 820 W/m 15,7 C 32,3 C 0,0 km/h (0 Bft) 0,00 %
30.08.2015 13:14 32,5 C 37 % 1018,8 hPa 0,0 l/m 0,0 km/h (0 Bft) NO 42 5 min 0,000 mm 3,0 UV-I 823 W/m 15,9 C 32,5 C 0,0 km/h (0 Bft) 0,00 %
30.08.2015 13:19 32,8 C 36 % 1018,7 hPa 0,0 l/m 0,0 km/h (0 Bft) NW 321 5 min 0,000 mm 3,0 UV-I 830 W/m 15,7 C 32,8 C 0,0 km/h (0 Bft) 0,00 %
30.08.2015 13:24 33,0 C 36 % 1018,7 hPa 0,0 l/m 0,4 km/h (0 Bft) N-NW 337 5 min 0,000 mm 3,0 UV-I 833 W/m 15,9 C 33,0 C 4,0 km/h (1 Bft) 0,00 %
30.08.2015 13:29 33,1 C 35 % 1018,7 hPa 0,0 l/m 0,0 km/h (0 Bft) NO 52 5 min 0,000 mm 3,0 UV-I 834 W/m 15,6 C 33,1 C 0,0 km/h (0 Bft) 0,00 %
30.08.2015 13:34 33,2 C 35 % 1018,7 hPa 0,0 l/m 1,4 km/h (1 Bft) N-NW 338 5 min 0,000 mm 3,0 UV-I 844 W/m 15,6 C 33,2 C 4,0 km/h (1 Bft) 0,00 %
30.08.2015 13:39 33,2 C 35 % 1018,4 hPa 0,0 l/m 0,0 km/h (0 Bft) NO 48 5 min 0,000 mm 3,0 UV-I 844 W/m 15,6 C 33,2 C 0,0 km/h (0 Bft) 0,00 %
30.08.2015 13:44 33,2 C 35 % 1018,5 hPa 0,0 l/m 0,4 km/h (0 Bft) S-SW 200 5 min 0,000 mm 3,0 UV-I 850 W/m 15,6 C 33,2 C 4,0 km/h (1 Bft) 0,00 %
30.08.2015 13:49 33,2 C 37 % 1018,4 hPa 0,0 l/m 0,0 km/h (0 Bft) N-NW 346 5 min 0,000 mm 3,0 UV-I 854 W/m 16,5 C 33,2 C 0,0 km/h (0 Bft) 0,00 %
30.08.2015 13:54 33,4 C 33 % 1018,2 hPa 0,0 l/m 0,0 km/h (0 Bft) O-NO 63 5 min 0,000 mm 3,0 UV-I 858 W/m 14,9 C 33,4 C 0,0 km/h (0 Bft) 0,00 %
30.08.2015 13:59 33,9 C 33 % 1018,2 hPa 0,0 l/m 0,0 km/h (0 Bft) NW 311 5 min 0,000 mm 3,0 UV-I 867 W/m 15,3 C 33,9 C 0,0 km/h (0 Bft) 0,00 %
30.08.2015 14:04 34,2 C 33 % 1018,1 hPa 0,0 l/m 4,3 km/h (1 Bft) W-SW 256 5 min 0,000 mm 3,0 UV-I 865 W/m 15,6 C 34,2 C 7,9 km/h (2 Bft) 0,00 %
30.08.2015 14:09 34,3 C 33 % 1018,1 hPa 0,0 l/m 0,0 km/h (0 Bft) NO 36 5 min 0,000 mm 3,0 UV-I 868 W/m 15,7 C 34,3 C 0,0 km/h (0 Bft) 0,00 %
30.08.2015 14:14 34,3 C 32 % 1018,1 hPa 0,0 l/m 0,4 km/h (0 Bft) NO 37 5 min 0,000 mm 3,0 UV-I 880 W/m 15,2 C 34,3 C 4,0 km/h (1 Bft) 0,00 %
30.08.2015 14:19 34,4 C 32 % 1017,9 hPa 0,0 l/m 2,9 km/h (1 Bft) S-SW 210 5 min 0,000 mm 3,0 UV-I 883 W/m 15,3 C 34,4 C 4,0 km/h (1 Bft) 0,00 %
30.08.2015 14:24 34,5 C 32 % 1017,9 hPa 0,0 l/m 0,0 km/h (0 Bft) N-NO 21 5 min 0,000 mm 3,0 UV-I 890 W/m 15,4 C 34,5 C 0,0 km/h (0 Bft) 0,00 %
30.08.2015 14:29 34,8 C 31 % 1017,9 hPa 0,0 l/m 1,4 km/h (1 Bft) O-SO 102 5 min 0,000 mm 3,0 UV-I 888 W/m 15,1 C 34,8 C 4,0 km/h (1 Bft) 0,00 %
30.08.2015 14:34 35,1 C 30 % 1017,9 hPa 0,0 l/m 0,0 km/h (0 Bft) NO 53 5 min 0,000 mm 3,0 UV-I 892 W/m 14,9 C 35,1 C 0,0 km/h (0 Bft) 0,00 %
30.08.2015 14:39 35,4 C 30 % 1017,7 hPa 0,0 l/m 1,4 km/h (1 Bft) W-SW 256 5 min 0,000 mm 3,0 UV-I 898 W/m 15,1 C 35,4 C 4,0 km/h (1 Bft) 0,00 %
30.08.2015 14:44 35,5 C 29 % 1017,6 hPa 0,0 l/m 0,0 km/h (0 Bft) N-NO 12 5 min 0,000 mm 3,0 UV-I 895 W/m 14,7 C 35,5 C 0,0 km/h (0 Bft) 0,00 %
30.08.2015 14:49 35,3 C 30 % 1017,5 hPa 0,0 l/m 8,3 km/h (2 Bft) W-SW 257 5 min 0,000 mm 3,0 UV-I 898 W/m 15,0 C 35,3 C 11,9 km/h (2 Bft) 0,00 %
30.08.2015 14:54 35,2 C 29 % 1017,3 hPa 0,0 l/m 4,0 km/h (1 Bft) N-NW 330 5 min 0,000 mm 3,0 UV-I 900 W/m 14,4 C 35,2 C 7,9 km/h (2 Bft) 0,00 %
30.08.2015 14:59 35,2 C 30 % 1017,3 hPa 0,0 l/m 0,0 km/h (0 Bft) NO 37 5 min 0,000 mm 2,0 UV-I 894 W/m 15,0 C 35,2 C 0,0 km/h (0 Bft) 0,00 %
30.08.2015 15:04 35,3 C 29 % 1017,2 hPa 0,0 l/m 0,4 km/h (0 Bft) N-NO 28 5 min 0,000 mm 2,0 UV-I 897 W/m 14,5 C 35,3 C 4,0 km/h (1 Bft) 0,00 %
30.08.2015 15:09 35,3 C 30 % 1017,3 hPa 0,0 l/m 0,0 km/h (0 Bft) N-NO 28 5 min 0,000 mm 1,0 UV-I 891 W/m 15,0 C 35,3 C 0,0 km/h (0 Bft) 0,00 %
30.08.2015 15:14 35,3 C 30 % 1017,1 hPa 0,0 l/m 0,7 km/h (0 Bft) O-NO 74 5 min 0,000 mm 1,0 UV-I 893 W/m 15,0 C 35,3 C 4,0 km/h (1 Bft) 0,00 %
30.08.2015 15:19 35,4 C 29 % 1017,0 hPa 0,0 l/m 0,0 km/h (0 Bft) NO 49 5 min 0,000 mm 1,0 UV-I 903 W/m 14,6 C 35,4 C 0,0 km/h (0 Bft) 0,00 %
30.08.2015 15:24 35,6 C 29 % 1016,9 hPa 0,0 l/m 1,4 km/h (1 Bft) O 82 5 min 0,000 mm 1,0 UV-I 894 W/m 14,8 C 35,6 C 4,0 km/h (1 Bft) 0,00 %
30.08.2015 15:29 35,7 C 29 % 1016,8 hPa 0,0 l/m 5,8 km/h (2 Bft) W 268 5 min 0,000 mm 1,0 UV-I 896 W/m 14,9 C 35,7 C 7,9 km/h (2 Bft) 0,00 %
30.08.2015 15:34 35,5 C 29 % 1016,8 hPa 0,0 l/m 0,0 km/h (0 Bft) N-NW 346 5 min 0,000 mm 1,0 UV-I 874 W/m 14,7 C 35,5 C 0,0 km/h (0 Bft) 0,00 %
30.08.2015 15:39 35,3 C 30 % 1016,7 hPa 0,0 l/m 0,0 km/h (0 Bft) N 7 5 min 0,000 mm 1,0 UV-I 877 W/m 15,0 C 35,3 C 0,0 km/h (0 Bft) 0,00 %
30.08.2015 15:44 35,0 C 31 % 1016,6 hPa 0,0 l/m 0,0 km/h (0 Bft) O-NO 67 5 min 0,000 mm 1,0 UV-I 872 W/m 15,3 C 35,0 C 0,0 km/h (0 Bft) 0,00 %
30.08.2015 15:49 34,8 C 32 % 1016,5 hPa 0,0 l/m 0,7 km/h (0 Bft) NO 34 5 min 0,000 mm 1,0 UV-I 866 W/m 15,6 C 34,8 C 4,0 km/h (1 Bft) 0,00 %
30.08.2015 15:54 34,6 C 32 % 1016,6 hPa 0,0 l/m 0,4 km/h (0 Bft) W-NW 296 5 min 0,000 mm 1,0 UV-I 864 W/m 15,5 C 34,6 C 4,0 km/h (1 Bft) 0,00 %
30.08.2015 15:59 34,5 C 32 % 1016,5 hPa 0,0 l/m 0,0 km/h (0 Bft) NO 41 5 min 0,000 mm 1,0 UV-I 855 W/m 15,4 C 34,5 C 0,0 km/h (0 Bft) 0,00 %
30.08.2015 16:04 34,3 C 31 % 1016,4 hPa 0,0 l/m 0,0 km/h (0 Bft) N-NW 338 5 min 0,000 mm 1,0 UV-I 848 W/m 14,7 C 34,3 C 0,0 km/h (0 Bft) 0,00 %
30.08.2015 16:09 34,2 C 32 % 1016,3 hPa 0,0 l/m 0,0 km/h (0 Bft) NO 44 5 min 0,000 mm 1,0 UV-I 587 W/m 15,1 C 34,2 C 0,0 km/h (0 Bft) 0,00 %
30.08.2015 16:14 34,1 C 32 % 1016,2 hPa 0,0 l/m 1,8 km/h (1 Bft) N-NW 347 0 min 0,000 mm 1,0 UV-I 174 W/m 15,0 C 34,1 C 4,0 km/h (1 Bft) 0,00 %
30.08.2015 16:19 34,0 C 32 % 1016,1 hPa 0,0 l/m 0,7 km/h (0 Bft) N-NW 342 0 min 0,000 mm 1,0 UV-I 151 W/m 14,9 C 34,0 C 4,0 km/h (1 Bft) 0,00 %
30.08.2015 16:24 33,9 C 33 % 1016,1 hPa 0,0 l/m 0,0 km/h (0 Bft) NO 39 0 min 0,000 mm 1,0 UV-I 150 W/m 15,3 C 33,9 C 0,0 km/h (0 Bft) 0,00 %
30.08.2015 16:29 33,9 C 31 % 1016,0 hPa 0,0 l/m 0,0 km/h (0 Bft) O 81 0 min 0,000 mm 1,0 UV-I 149 W/m 14,4 C 33,9 C 0,0 km/h (0 Bft) 0,00 %
30.08.2015 16:34 33,9 C 31 % 1016,0 hPa 0,0 l/m 0,0 km/h (0 Bft) O-NO 64 0 min 0,000 mm 1,0 UV-I 149 W/m 14,4 C 33,9 C 0,0 km/h (0 Bft) 0,00 %
30.08.2015 16:39 34,0 C 32 % 1016,0 hPa 0,0 l/m 0,0 km/h (0 Bft) N-NO 20 0 min 0,000 mm 1,0 UV-I 149 W/m 14,9 C 34,0 C 0,0 km/h (0 Bft) 0,00 %
30.08.2015 16:44 34,1 C 32 % 1015,9 hPa 0,0 l/m 0,0 km/h (0 Bft) NO 45 0 min 0,000 mm 1,0 UV-I 150 W/m 15,0 C 34,1 C 0,0 km/h (0 Bft) 0,00 %
30.08.2015 16:49 34,1 C 32 % 1016,0 hPa 0,0 l/m 0,4 km/h (0 Bft) O 101 0 min 0,000 mm 1,0 UV-I 150 W/m 15,0 C 34,1 C 4,0 km/h (1 Bft) 0,00 %
30.08.2015 16:54 34,1 C 33 % 1015,9 hPa 0,0 l/m 0,0 km/h (0 Bft) O 80 0 min 0,000 mm 1,0 UV-I 158 W/m 15,5 C 34,1 C 0,0 km/h (0 Bft) 0,00 %
30.08.2015 16:59 33,9 C 33 % 1015,8 hPa 0,0 l/m 0,0 km/h (0 Bft) NO 53 0 min 0,000 mm 1,0 UV-I 165 W/m 15,3 C 33,9 C 0,0 km/h (0 Bft) 0,00 %
30.08.2015 17:04 33,8 C 33 % 1015,7 hPa 0,0 l/m 0,0 km/h (0 Bft) N-NW 331 0 min 0,000 mm 1,0 UV-I 166 W/m 15,2 C 33,8 C 0,0 km/h (0 Bft) 0,00 %
30.08.2015 17:09 33,7 C 32 % 1015,8 hPa 0,0 l/m 0,0 km/h (0 Bft) N-NO 31 5 min 0,000 mm 1,0 UV-I 716 W/m 14,7 C 33,7 C 0,0 km/h (0 Bft) 0,00 %
30.08.2015 17:14 33,8 C 31 % 1015,6 hPa 0,0 l/m 0,0 km/h (0 Bft) N-NO 29 5 min 0,000 mm 1,0 UV-I 735 W/m 14,3 C 33,8 C 0,0 km/h (0 Bft) 0,00 %
30.08.2015 17:19 33,9 C 31 % 1015,6 hPa 0,0 l/m 1,8 km/h (1 Bft) N-NW 329 5 min 0,000 mm 1,0 UV-I 741 W/m 14,4 C 33,9 C 4,0 km/h (1 Bft) 0,00 %
30.08.2015 17:24 34,2 C 30 % 1015,6 hPa 0,0 l/m 0,0 km/h (0 Bft) N-NO 13 5 min 0,000 mm 1,0 UV-I 733 W/m 14,1 C 34,2 C 0,0 km/h (0 Bft) 0,00 %
30.08.2015 17:29 34,6 C 29 % 1015,5 hPa 0,0 l/m 0,0 km/h (0 Bft) N-NO 30 5 min 0,000 mm 1,0 UV-I 721 W/m 13,9 C 34,6 C 0,0 km/h (0 Bft) 0,00 %
30.08.2015 17:34 34,9 C 29 % 1015,4 hPa 0,0 l/m 0,0 km/h (0 Bft) NO 49 5 min 0,000 mm 1,0 UV-I 708 W/m 14,2 C 34,9 C 0,0 km/h (0 Bft) 0,00 %
30.08.2015 17:39 35,1 C 29 % 1015,4 hPa 0,0 l/m 0,0 km/h (0 Bft) O 91 5 min 0,000 mm 1,0 UV-I 692 W/m 14,4 C 35,1 C 0,0 km/h (0 Bft) 0,00 %
30.08.2015 17:44 35,1 C 29 % 1015,4 hPa 0,0 l/m 0,0 km/h (0 Bft) O-SO 122 5 min 0,000 mm 1,0 UV-I 668 W/m 14,4 C 35,1 C 0,0 km/h (0 Bft) 0,00 %
30.08.2015 17:49 35,0 C 29 % 1015,4 hPa 0,0 l/m 0,0 km/h (0 Bft) NO 39 5 min 0,000 mm 1,0 UV-I 664 W/m 14,3 C 35,0 C 0,0 km/h (0 Bft) 0,00 %
30.08.2015 17:54 34,9 C 29 % 1015,4 hPa 0,0 l/m 0,0 km/h (0 Bft) O-NO 62 5 min 0,000 mm 1,0 UV-I 651 W/m 14,2 C 34,9 C 0,0 km/h (0 Bft) 0,00 %
30.08.2015 17:59 34,9 C 30 % 1015,4 hPa 0,0 l/m 0,0 km/h (0 Bft) NO 56 5 min 0,000 mm 1,0 UV-I 633 W/m 14,7 C 34,9 C 0,0 km/h (0 Bft) 0,00 %
30.08.2015 18:04 34,9 C 30 % 1015,4 hPa 0,0 l/m 0,0 km/h (0 Bft) NO 51 5 min 0,000 mm 1,0 UV-I 610 W/m 14,7 C 34,9 C 0,0 km/h (0 Bft) 0,00 %
30.08.2015 18:09 34,8 C 30 % 1015,3 hPa 0,0 l/m 0,0 km/h (0 Bft) NO 35 5 min 0,000 mm 1,0 UV-I 588 W/m 14,6 C 34,8 C 0,0 km/h (0 Bft) 0,00 %
30.08.2015 18:14 34,8 C 30 % 1015,1 hPa 0,0 l/m 0,0 km/h (0 Bft) W 275 5 min 0,000 mm 1,0 UV-I 566 W/m 14,6 C 34,8 C 0,0 km/h (0 Bft) 0,00 %
30.08.2015 18:19 34,9 C 30 % 1015,2 hPa 0,0 l/m 0,0 km/h (0 Bft) NO 40 5 min 0,000 mm 1,0 UV-I 536 W/m 14,7 C 34,9 C 0,0 km/h (0 Bft) 0,00 %
30.08.2015 18:24 34,9 C 29 % 1015,3 hPa 0,0 l/m 0,0 km/h (0 Bft) NO 50 5 min 0,000 mm 1,0 UV-I 499 W/m 14,2 C 34,9 C 0,0 km/h (0 Bft) 0,00 %
30.08.2015 18:29 34,9 C 31 % 1015,0 hPa 0,0 l/m 0,0 km/h (0 Bft) NO 38 5 min 0,000 mm 1,0 UV-I 480 W/m 15,2 C 34,9 C 0,0 km/h (0 Bft) 0,00 %
30.08.2015 18:34 34,8 C 31 % 1015,3 hPa 0,0 l/m 1,4 km/h (1 Bft) N 354 5 min 0,000 mm 0,0 UV-I 458 W/m 15,1 C 34,8 C 4,0 km/h (1 Bft) 0,00 %
30.08.2015 18:39 34,7 C 32 % 1015,2 hPa 0,0 l/m 0,0 km/h (0 Bft) N-NO 32 5 min 0,000 mm 0,0 UV-I 413 W/m 15,5 C 34,7 C 0,0 km/h (0 Bft) 0,00 %
30.08.2015 18:44 34,3 C 32 % 1015,2 hPa 0,0 l/m 0,0 km/h (0 Bft) N 9 5 min 0,000 mm 0,0 UV-I 374 W/m 15,2 C 34,3 C 0,0 km/h (0 Bft) 0,00 %
30.08.2015 18:49 33,9 C 34 % 1015,3 hPa 0,0 l/m 0,0 km/h (0 Bft) NO 39 5 min 0,000 mm 0,0 UV-I 336 W/m 15,8 C 33,9 C 0,0 km/h (0 Bft) 0,00 %
30.08.2015 18:54 33,6 C 34 % 1015,0 hPa 0,0 l/m 0,0 km/h (0 Bft) NO 42 5 min 0,000 mm 0,0 UV-I 300 W/m 15,5 C 33,6 C 0,0 km/h (0 Bft) 0,00 %
30.08.2015 18:59 33,4 C 35 % 1015,1 hPa 0,0 l/m 0,0 km/h (0 Bft) NO 45 5 min 0,000 mm 0,0 UV-I 266 W/m 15,8 C 33,4 C 0,0 km/h (0 Bft) 0,00 %
30.08.2015 19:04 33,1 C 37 % 1015,3 hPa 0,0 l/m 0,0 km/h (0 Bft) NO 51 5 min 0,000 mm 0,0 UV-I 230 W/m 16,4 C 33,1 C 0,0 km/h (0 Bft) 0,00 %
30.08.2015 19:09 32,7 C 37 % 1015,0 hPa 0,0 l/m 0,0 km/h (0 Bft) NO 49 5 min 0,000 mm 0,0 UV-I 191 W/m 16,1 C 32,7 C 0,0 km/h (0 Bft) 0,00 %
30.08.2015 19:14 32,4 C 38 % 1015,0 hPa 0,0 l/m 0,0 km/h (0 Bft) NO 39 5 min 0,000 mm 0,0 UV-I 155 W/m 16,2 C 32,4 C 0,0 km/h (0 Bft) 0,00 %
30.08.2015 19:19 32,1 C 38 % 1015,4 hPa 0,0 l/m 0,0 km/h (0 Bft) O-NO 57 5 min 0,000 mm 0,0 UV-I 61 W/m 16,0 C 32,1 C 0,0 km/h (0 Bft) 0,00 %
30.08.2015 19:24 31,7 C 38 % 1015,3 hPa 0,0 l/m 0,0 km/h (0 Bft) O-NO 57 5 min 0,000 mm 0,0 UV-I 43 W/m 15,6 C 31,7 C 0,0 km/h (0 Bft) 0,00 %
30.08.2015 19:29 31,3 C 40 % 1015,3 hPa 0,0 l/m 0,0 km/h (0 Bft) NO 48 5 min 0,000 mm 0,0 UV-I 34 W/m 16,1 C 31,3 C 0,0 km/h (0 Bft) 0,00 %
30.08.2015 19:34 30,9 C 40 % 1015,5 hPa 0,0 l/m 0,0 km/h (0 Bft) NO 52 5 min 0,000 mm 0,0 UV-I 28 W/m 15,7 C 30,9 C 0,0 km/h (0 Bft) 0,00 %
30.08.2015 19:39 30,4 C 41 % 1015,5 hPa 0,0 l/m 0,0 km/h (0 Bft) O-NO 57 5 min 0,000 mm 0,0 UV-I 17 W/m 15,6 C 30,4 C 0,0 km/h (0 Bft) 0,00 %
30.08.2015 19:44 30,0 C 43 % 1015,5 hPa 0,0 l/m 0,0 km/h (0 Bft) NO 51 0 min 0,000 mm 0,0 UV-I 7 W/m 16,0 C 30,0 C 0,0 km/h (0 Bft) 0,00 %
30.08.2015 19:49 29,7 C 43 % 1015,6 hPa 0,0 l/m 0,0 km/h (0 Bft) O-NO 61 0 min 0,000 mm 0,0 UV-I 1 W/m 15,8 C 29,7 C 0,0 km/h (0 Bft) 0,00 %
30.08.2015 19:54 29,5 C 44 % 1015,5 hPa 0,0 l/m 0,0 km/h (0 Bft) O-NO 58 0 min 0,000 mm 0,0 UV-I 0 W/m 15,9 C 29,5 C 0,0 km/h (0 Bft) 0,00 %
30.08.2015 19:59 29,2 C 46 % 1015,4 hPa 0,0 l/m 0,0 km/h (0 Bft) O-NO 58 0 min 0,000 mm 0,0 UV-I 0 W/m 16,4 C 29,2 C 0,0 km/h (0 Bft) 0,00 %
30.08.2015 20:04 28,9 C 46 % 1015,6 hPa 0,0 l/m 0,0 km/h (0 Bft) NO 41 0 min 0,000 mm 0,0 UV-I 0 W/m 16,1 C 28,9 C 0,0 km/h (0 Bft) 0,00 %
30.08.2015 20:09 28,2 C 47 % 1015,6 hPa 0,0 l/m 0,0 km/h (0 Bft) NO 42 0 min 0,000 mm 0,0 UV-I 0 W/m 15,8 C 28,2 C 0,0 km/h (0 Bft) 0,00 %
30.08.2015 20:14 27,9 C 48 % 1015,8 hPa 0,0 l/m 0,0 km/h (0 Bft) NO 42 0 min 0,000 mm 0,0 UV-I 0 W/m 15,9 C 27,9 C 0,0 km/h (0 Bft) 0,00 %
30.08.2015 20:19 27,7 C 48 % 1015,7 hPa 0,0 l/m 0,0 km/h (0 Bft) NO 43 0 min 0,000 mm 0,0 UV-I 0 W/m 15,7 C 27,7 C 0,0 km/h (0 Bft) 0,00 %
30.08.2015 20:24 27,4 C 50 % 1015,8 hPa 0,0 l/m 0,0 km/h (0 Bft) NO 50 0 min 0,000 mm 0,0 UV-I 0 W/m 16,0 C 27,4 C 0,0 km/h (0 Bft) 0,00 %
30.08.2015 20:29 27,1 C 50 % 1015,8 hPa 0,0 l/m 0,0 km/h (0 Bft) NO 50 0 min 0,000 mm 0,0 UV-I 0 W/m 15,8 C 27,1 C 0,0 km/h (0 Bft) 0,00 %
30.08.2015 20:34 26,9 C 50 % 1015,8 hPa 0,0 l/m 0,0 km/h (0 Bft) NO 50 0 min 0,000 mm 0,0 UV-I 0 W/m 15,6 C 26,9 C 0,0 km/h (0 Bft) 0,00 %
30.08.2015 20:39 26,7 C 50 % 1015,8 hPa 0,0 l/m 0,0 km/h (0 Bft) NO 50 0 min 0,000 mm 0,0 UV-I 0 W/m 15,4 C 26,7 C 0,0 km/h (0 Bft) 0,00 %
30.08.2015 20:44 26,5 C 51 % 1016,0 hPa 0,0 l/m 0,0 km/h (0 Bft) NO 50 0 min 0,000 mm 0,0 UV-I 0 W/m 15,5 C 26,5 C 0,0 km/h (0 Bft) 0,00 %
30.08.2015 20:49 26,3 C 53 % 1015,9 hPa 0,0 l/m 0,0 km/h (0 Bft) NO 50 0 min 0,000 mm 0,0 UV-I 0 W/m 15,9 C 26,3 C 0,0 km/h (0 Bft) 0,00 %
30.08.2015 20:54 26,1 C 53 % 1016,0 hPa 0,0 l/m 0,0 km/h (0 Bft) NO 51 0 min 0,000 mm 0,0 UV-I 0 W/m 15,8 C 26,1 C 0,0 km/h (0 Bft) 0,00 %
30.08.2015 20:59 25,8 C 55 % 1015,9 hPa 0,0 l/m 0,0 km/h (0 Bft) O-NO 58 0 min 0,000 mm 0,0 UV-I 0 W/m 16,1 C 25,8 C 0,0 km/h (0 Bft) 0,00 %
30.08.2015 21:04 25,6 C 55 % 1015,8 hPa 0,0 l/m 0,0 km/h (0 Bft) O-NO 70 0 min 0,000 mm 0,0 UV-I 0 W/m 15,9 C 25,6 C 0,0 km/h (0 Bft) 0,00 %
30.08.2015 21:09 25,5 C 54 % 1015,8 hPa 0,0 l/m 0,0 km/h (0 Bft) O-NO 71 0 min 0,000 mm 0,0 UV-I 0 W/m 15,5 C 25,5 C 0,0 km/h (0 Bft) 0,00 %
30.08.2015 21:14 25,4 C 53 % 1015,9 hPa 0,0 l/m 0,0 km/h (0 Bft) O-NO 74 0 min 0,000 mm 0,0 UV-I 0 W/m 15,1 C 25,4 C 0,0 km/h (0 Bft) 0,00 %
30.08.2015 21:19 25,4 C 54 % 1015,9 hPa 0,0 l/m 0,0 km/h (0 Bft) NO 51 0 min 0,000 mm 0,0 UV-I 0 W/m 15,4 C 25,4 C 0,0 km/h (0 Bft) 0,00 %
30.08.2015 21:24 25,4 C 57 % 1015,9 hPa 0,0 l/m 0,0 km/h (0 Bft) NO 39 0 min 0,000 mm 0,0 UV-I 0 W/m 16,2 C 25,4 C 0,0 km/h (0 Bft) 0,00 %
30.08.2015 21:30 25,2 C 59 % 1016,0 hPa 0,0 l/m 0,0 km/h (0 Bft) N-NO 16 0 min 0,000 mm 0,0 UV-I 0 W/m 16,6 C 25,2 C 0,0 km/h (0 Bft) 0,00 %
30.08.2015 21:35 24,9 C 60 % 1016,0 hPa 0,0 l/m 0,0 km/h (0 Bft) N 9 0 min 0,000 mm 0,0 UV-I 0 W/m 16,6 C 24,9 C 0,0 km/h (0 Bft) 0,00 %
30.08.2015 21:40 24,8 C 60 % 1016,0 hPa 0,0 l/m 0,0 km/h (0 Bft) NO 42 0 min 0,000 mm 0,0 UV-I 0 W/m 16,5 C 24,8 C 0,0 km/h (0 Bft) 0,00 %
30.08.2015 21:45 24,6 C 61 % 1015,9 hPa 0,0 l/m 0,0 km/h (0 Bft) NO 39 0 min 0,000 mm 0,0 UV-I 0 W/m 16,6 C 24,6 C 0,0 km/h (0 Bft) 0,00 %
30.08.2015 21:50 24,4 C 61 % 1015,8 hPa 0,0 l/m 0,0 km/h (0 Bft) NO 42 0 min 0,000 mm 0,0 UV-I 0 W/m 16,4 C 24,4 C 0,0 km/h (0 Bft) 0,00 %
30.08.2015 21:55 24,3 C 62 % 1015,9 hPa 0,0 l/m 0,0 km/h (0 Bft) NO 45 0 min 0,000 mm 0,0 UV-I 0 W/m 16,5 C 24,3 C 0,0 km/h (0 Bft) 0,00 %
30.08.2015 22:00 24,1 C 63 % 1016,1 hPa 0,0 l/m 0,0 km/h (0 Bft) NO 45 0 min 0,000 mm 0,0 UV-I 0 W/m 16,6 C 24,1 C 0,0 km/h (0 Bft) 0,00 %
30.08.2015 22:05 23,8 C 63 % 1015,9 hPa 0,0 l/m 0,0 km/h (0 Bft) N-NO 32 0 min 0,000 mm 0,0 UV-I 0 W/m 16,3 C 23,8 C 0,0 km/h (0 Bft) 0,00 %
30.08.2015 22:10 23,5 C 64 % 1016,1 hPa 0,0 l/m 0,0 km/h (0 Bft) N 355 0 min 0,000 mm 0,0 UV-I 0 W/m 16,3 C 23,5 C 0,0 km/h (0 Bft) 0,00 %
30.08.2015 22:15 23,2 C 66 % 1016,1 hPa 0,0 l/m 0,0 km/h (0 Bft) NO 51 0 min 0,000 mm 0,0 UV-I 0 W/m 16,5 C 23,2 C 0,0 km/h (0 Bft) 0,00 %
30.08.2015 22:20 23,0 C 66 % 1016,0 hPa 0,0 l/m 0,0 km/h (0 Bft) N-NO 16 0 min 0,000 mm 0,0 UV-I 0 W/m 16,3 C 23,0 C 0,0 km/h (0 Bft) 0,00 %
30.08.2015 22:25 22,8 C 67 % 1015,9 hPa 0,0 l/m 0,0 km/h (0 Bft) NO 48 0 min 0,000 mm 0,0 UV-I 0 W/m 16,3 C 22,8 C 0,0 km/h (0 Bft) 0,00 %
30.08.2015 22:30 22,7 C 67 % 1016,1 hPa 0,0 l/m 0,0 km/h (0 Bft) NO 48 0 min 0,000 mm 0,0 UV-I 0 W/m 16,2 C 22,7 C 0,0 km/h (0 Bft) 0,00 %
30.08.2015 22:35 22,5 C 67 % 1016,0 hPa 0,0 l/m 0,0 km/h (0 Bft) NO 53 0 min 0,000 mm 0,0 UV-I 0 W/m 16,1 C 22,5 C 0,0 km/h (0 Bft) 0,00 %
30.08.2015 22:40 22,4 C 66 % 1016,0 hPa 0,0 l/m 0,0 km/h (0 Bft) NO 54 0 min 0,000 mm 0,0 UV-I 0 W/m 15,7 C 22,4 C 0,0 km/h (0 Bft) 0,00 %
30.08.2015 22:45 22,3 C 65 % 1016,0 hPa 0,0 l/m 0,0 km/h (0 Bft) NO 54 0 min 0,000 mm 0,0 UV-I 0 W/m 15,4 C 22,3 C 0,0 km/h (0 Bft) 0,00 %
30.08.2015 22:50 22,4 C 66 % 1016,0 hPa 0,0 l/m 0,0 km/h (0 Bft) NO 54 0 min 0,000 mm 0,0 UV-I 0 W/m 15,7 C 22,4 C 0,0 km/h (0 Bft) 0,00 %
30.08.2015 22:55 22,4 C 66 % 1015,9 hPa 0,0 l/m 0,0 km/h (0 Bft) NO 54 0 min 0,000 mm 0,0 UV-I 0 W/m 15,7 C 22,4 C 0,0 km/h (0 Bft) 0,00 %
30.08.2015 23:00 22,5 C 67 % 1016,0 hPa 0,0 l/m 0,0 km/h (0 Bft) NO 54 0 min 0,000 mm 0,0 UV-I 0 W/m 16,1 C 22,5 C 0,0 km/h (0 Bft) 0,00 %
30.08.2015 23:05 22,5 C 68 % 1016,0 hPa 0,0 l/m 0,0 km/h (0 Bft) NO 54 0 min 0,000 mm 0,0 UV-I 0 W/m 16,3 C 22,5 C 0,0 km/h (0 Bft) 0,00 %
30.08.2015 23:10 22,4 C 69 % 1015,8 hPa 0,0 l/m 0,0 km/h (0 Bft) NO 54 0 min 0,000 mm 0,0 UV-I 0 W/m 16,4 C 22,4 C 0,0 km/h (0 Bft) 0,00 %
30.08.2015 23:15 22,2 C 68 % 1016,0 hPa 0,0 l/m 0,0 km/h (0 Bft) NO 54 0 min 0,000 mm 0,0 UV-I 0 W/m 16,0 C 22,2 C 0,0 km/h (0 Bft) 0,00 %
30.08.2015 23:20 22,0 C 70 % 1016,1 hPa 0,0 l/m 0,0 km/h (0 Bft) NO 56 0 min 0,000 mm 0,0 UV-I 0 W/m 16,3 C 22,0 C 0,0 km/h (0 Bft) 0,00 %
30.08.2015 23:25 21,7 C 71 % 1016,0 hPa 0,0 l/m 0,0 km/h (0 Bft) NO 56 0 min 0,000 mm 0,0 UV-I 0 W/m 16,2 C 21,7 C 0,0 km/h (0 Bft) 0,00 %
30.08.2015 23:30 21,6 C 71 % 1016,1 hPa 0,0 l/m 0,0 km/h (0 Bft) NO 56 0 min 0,000 mm 0,0 UV-I 0 W/m 16,1 C 21,6 C 0,0 km/h (0 Bft) 0,00 %
30.08.2015 23:35 21,4 C 73 % 1016,2 hPa 0,0 l/m 0,0 km/h (0 Bft) NO 56 0 min 0,000 mm 0,0 UV-I 0 W/m 16,4 C 21,4 C 0,0 km/h (0 Bft) 0,00 %
30.08.2015 23:40 21,2 C 73 % 1016,0 hPa 0,0 l/m 0,0 km/h (0 Bft) NO 56 0 min 0,000 mm 0,0 UV-I 0 W/m 16,2 C 21,2 C 0,0 km/h (0 Bft) 0,00 %
30.08.2015 23:45 21,0 C 74 % 1016,0 hPa 0,0 l/m 0,0 km/h (0 Bft) NO 56 0 min 0,000 mm 0,0 UV-I 0 W/m 16,2 C 21,0 C 0,0 km/h (0 Bft) 0,00 %
30.08.2015 23:50 20,8 C 74 % 1016,0 hPa 0,0 l/m 0,0 km/h (0 Bft) NO 56 0 min 0,000 mm 0,0 UV-I 0 W/m 16,0 C 20,8 C 0,0 km/h (0 Bft) 0,00 %
30.08.2015 23:55 20,6 C 75 % 1016,0 hPa 0,0 l/m 0,0 km/h (0 Bft) NO 56 0 min 0,000 mm 0,0 UV-I 0 W/m 16,0 C 20,6 C 0,0 km/h (0 Bft) 0,00 %
_ Min-Zeit 06:29 14:44 18:29 - 00:18 - - - - - - 17:29 06:29 00:18 00:03
Minimum _ 14,4 C 29 % 1015,0 hPa - 0,0 km/h (0 Bft) - - - - - - 13,9 C 14,4 C 0,0 km/h (0 Bft) 0,00 %
_ Max-Zeit 15:29 05:59 11:04 00:03 14:49 - - 06:29 00:03 11:29 15:19 09:49 15:29 14:49 00:03
Maximum _ 35,7 C 98 % 1020,6 hPa 0,0 l/m 8,3 km/h
W-SW (2 Bft)
- - 5 min 0,000 mm 3,0 UV-I 903 W/m 16,8 C 35,7 C 11,9 km/h
W-SW (2 Bft)
0,00 %
Durchschnitt _ 25,6 C 59 % 1018,0 hPa #0,0 l/m 0,3 km/h (0 Bft) N-NW - #10:15 h #0,000 mm 1,8 UV-I 472 W/m 15,4 C 25,6 C 0,8 km/h (0 Bft) 0,00 %